WO1G-13 Weather Reports


time (UTC)temp
C
wind
direction
speed
KPH
gust
KPH
rain 1hr
cm
rain 24hr
cm
rain mn
cm
humidity
%
barometer
mb
20260510184637 26 306 4.8 8.0 0.00 0.00 0.00 91 1014.9
20260510184511 26 306 4.8 8.0 0.00 0.00 0.00 91 1014.9
20260510184137 26 306 4.8 8.0 0.00 0.00 0.00 90 1015.0
20260510184004 26 306 4.8 8.0 0.00 0.00 0.00 90 1015.0
20260510183637 26 306 4.8 8.0 0.00 0.00 0.00 91 1014.9
20260510183504 26 306 4.8 8.0 0.00 0.00 0.00 91 1014.9
20260510183137 26 306 4.8 8.0 0.00 0.00 0.00 91 1015.2
20260510183005 26 306 4.8 8.0 0.00 0.00 0.00 91 1015.3
20260510182637 26 306 4.8 8.0 0.00 0.00 0.00 90 1015.5
20260510182137 26 306 4.8 8.0 0.00 0.00 0.00 90 1015.5
20260510181637 26 306 4.8 8.0 0.00 0.00 0.00 89 1015.5
20260510181504 26 306 4.8 8.0 0.00 0.00 0.00 89 1015.5
20260510181137 27 306 4.8 8.0 0.00 0.00 0.00 89 1015.2
20260510181004 27 306 4.8 8.0 0.00 0.00 0.00 89 1015.1
20260510180637 27 306 4.8 8.0 0.00 0.00 0.00 89 1014.9
20260510180137 27 306 4.8 8.0 0.00 0.00 0.00 88 1014.7
20260510180004 27 306 4.8 8.0 0.00 0.00 0.00 87 1014.8
20260510175637 27 306 4.8 8.0 0.00 0.00 0.00 86 1015.7
20260510175504 27 306 4.8 8.0 0.00 0.00 0.00 86 1015.8
20260510175137 27 306 4.8 8.0 0.00 0.00 0.00 85 1015.8
20260510175004 27 306 4.8 8.0 0.00 0.00 0.00 86 1015.8
20260510174637 27 306 4.8 8.0 0.00 0.00 0.00 84 1015.8
20260510174503 27 306 4.8 8.0 0.00 0.00 0.00 84 1015.8
20260510174137 27 306 4.8 8.0 0.00 0.00 0.00 84 1015.9
20260510173637 27 306 4.8 8.0 0.00 0.00 0.00 82 1015.9
20260510173137 28 306 4.8 8.0 0.00 0.00 0.00 80 1016.0
20260510173004 28 306 4.8 8.0 0.00 0.00 0.00 79 1016.0
20260510172607 28 306 4.8 8.0 0.00 0.00 0.00 78 1016.0
20260510172107 29 306 4.8 8.0 0.00 0.00 0.00 75 1015.8
20260510172005 29 306 4.8 8.0 0.00 0.00 0.00 74 1015.8
20260510171607 30 306 4.8 8.0 0.00 0.00 0.00 69 1015.8
20260510171504 30 306 4.8 8.0 0.00 0.00 0.00 67 1015.7
20260510171107 31 306 4.8 8.0 0.00 0.00 0.00 59 1015.6
20260510171005 31 306 4.8 8.0 0.00 0.00 0.00 59 1015.5
20260510170607 31 306 4.8 8.0 0.00 0.00 0.00 59 1015.5
20260510170504 31 306 4.8 8.0 0.00 0.00 0.00 59 1015.5
20260510170107 31 306 4.8 8.0 0.00 0.00 0.00 59 1015.4
20260510170004 31 306 4.8 8.0 0.00 0.00 0.00 58 1015.4
20260510165607 31 306 4.8 8.0 0.00 0.00 0.00 60 1015.1
20260510165504 31 306 4.8 8.0 0.00 0.00 0.00 61 1015.1
20260510165107 31 306 4.8 8.0 0.00 0.00 0.00 60 1015.3
20260510165004 31 306 4.8 8.0 0.00 0.00 0.00 61 1015.3
20260510164607 31 306 4.8 8.0 0.00 0.00 0.00 62 1015.2
20260510164107 31 306 4.8 8.0 0.00 0.00 0.00 62 1015.6
20260510164004 31 306 4.8 8.0 0.00 0.00 0.00 61 1015.6
20260510163607 31 306 4.8 8.0 0.00 0.00 0.00 62 1015.6
20260510163504 31 306 4.8 8.0 0.00 0.00 0.00 61 1015.6
20260510163107 31 306 4.8 8.0 0.00 0.00 0.00 61 1015.6
20260510162607 31 306 4.8 8.0 0.00 0.00 0.00 61 1015.6
20260510162504 31 306 4.8 8.0 0.00 0.00 0.00 61 1015.7
20260510162107 31 306 4.8 8.0 0.00 0.00 0.00 61 1015.5
20260510162004 30 306 4.8 8.0 0.00 0.00 0.00 62 1015.5
20260510161607 30 306 4.8 8.0 0.00 0.00 0.00 65 1015.6
20260510161504 30 306 4.8 8.0 0.00 0.00 0.00 65 1015.7
20260510161107 30 306 4.8 8.0 0.00 0.00 0.00 67 1015.8
20260510161006 30 306 4.8 8.0 0.00 0.00 0.00 67 1015.8
20260510160607 30 306 4.8 8.0 0.00 0.00 0.00 67 1015.8
20260510160504 30 306 4.8 8.0 0.00 0.00 0.00 67 1015.9
20260510160107 30 306 4.8 8.0 0.00 0.00 0.00 69 1016.0
20260510160004 30 306 4.8 8.0 0.00 0.00 0.00 69 1016.0
20260510155607 30 306 4.8 8.0 0.00 0.00 0.00 68 1016.0
20260510155107 30 306 4.8 8.0 0.00 0.00 0.00 69 1015.9
20260510155004 30 306 4.8 8.0 0.00 0.00 0.00 69 1016.0
20260510154607 30 306 4.8 8.0 0.00 0.00 0.00 69 1015.9
20260510154504 30 306 4.8 8.0 0.00 0.00 0.00 68 1016.0
20260510154107 30 306 4.8 8.0 0.00 0.00 0.00 68 1016.0
20260510153607 30 306 4.8 8.0 0.00 0.00 0.00 69 1015.9
20260510153107 30 306 4.8 8.0 0.00 0.00 0.00 69 1015.8
20260510153005 30 306 4.8 8.0 0.00 0.00 0.00 70 1015.9
20260510152607 30 306 4.8 8.0 0.00 0.00 0.00 70 1015.9
20260510152107 30 306 4.8 8.0 0.00 0.00 0.00 69 1015.8
20260510152004 30 306 4.8 8.0 0.00 0.00 0.00 69 1015.8
20260510151607 30 306 4.8 8.0 0.00 0.00 0.00 69 1015.7
20260510151504 30 306 4.8 8.0 0.00 0.00 0.00 69 1015.8
20260510151107 30 306 4.8 8.0 0.00 0.00 0.00 69 1015.8
20260510151004 30 306 4.8 8.0 0.00 0.00 0.00 68 1015.8
20260510150607 30 306 4.8 8.0 0.00 0.00 0.00 68 1015.7
20260510150505 30 306 4.8 8.0 0.00 0.00 0.00 68 1015.7
20260510150107 30 306 4.8 8.0 0.00 0.00 0.00 68 1015.8
20260510145607 30 306 4.8 8.0 0.00 0.00 0.00 67 1015.6
20260510145504 30 306 4.8 8.0 0.00 0.00 0.00 67 1015.6
20260510145107 30 306 4.8 8.0 0.00 0.00 0.00 67 1015.6
20260510145004 30 306 4.8 8.0 0.00 0.00 0.00 67 1015.6
20260510144607 30 306 4.8 8.0 0.00 0.00 0.00 69 1015.5
20260510144504 30 306 4.8 8.0 0.00 0.00 0.00 68 1015.6
20260510144107 30 306 4.8 8.0 0.00 0.00 0.00 69 1015.5
20260510144004 29 306 4.8 8.0 0.00 0.00 0.00 69 1015.5
20260510143607 29 306 4.8 8.0 0.00 0.00 0.00 69 1015.6
20260510143504 29 306 4.8 8.0 0.00 0.00 0.00 69 1015.6
20260510143107 29 306 4.8 8.0 0.00 0.00 0.00 71 1015.5
20260510143006 29 306 4.8 8.0 0.00 0.00 0.00 71 1015.5
20260510142607 29 306 4.8 8.0 0.00 0.00 0.00 72 1015.5
20260510142504 29 306 4.8 8.0 0.00 0.00 0.00 72 1015.4
20260510142107 29 306 4.8 8.0 0.00 0.00 0.00 75 1015.4
20260510142004 29 306 4.8 8.0 0.00 0.00 0.00 75 1015.4
20260510141607 29 306 4.8 8.0 0.00 0.00 0.00 77 1015.4
20260510141504 29 306 4.8 8.0 0.00 0.00 0.00 78 1015.3
20260510141107 28 306 4.8 8.0 0.00 0.00 0.00 81 1015.1
20260510141004 28 306 4.8 8.0 0.00 0.00 0.00 81 1015.1
20260510140607 28 306 4.8 8.0 0.00 0.00 0.00 83 1015.1
20260510140504 28 306 4.8 8.0 0.00 0.00 0.00 84 1015.1
20260510140107 28 306 4.8 8.0 0.00 0.00 0.00 86 1015.0
20260510140003 27 306 4.8 8.0 0.00 0.00 0.00 87 1015.0
20260510135607 27 306 4.8 8.0 0.00 0.00 0.00 88 1015.0
20260510135504 27 306 4.8 8.0 0.00 0.00 0.00 89 1015.0
20260510135107 27 306 4.8 8.0 0.00 0.00 0.00 91 1014.7
20260510135004 27 306 4.8 8.0 0.00 0.00 0.00 92 1014.7
20260510134607 26 306 4.8 8.0 0.00 0.00 0.00 92 1014.9
20260510134505 26 306 4.8 8.0 0.00 0.00 0.00 93 1015.0
20260510134107 26 306 4.8 8.0 0.00 0.00 0.00 93 1015.1
20260510134004 26 306 4.8 8.0 0.00 0.00 0.00 94 1015.1
20260510133607 26 306 4.8 8.0 0.00 0.00 0.00 94 1015.0
20260510133504 26 306 4.8 8.0 0.00 0.00 0.00 94 1015.1
20260510133107 26 306 4.8 8.0 0.00 0.00 0.00 95 1015.1
20260510132607 26 306 4.8 8.0 0.00 0.00 0.00 95 1015.1
20260510132503 26 306 4.8 8.0 0.00 0.00 0.00 95 1015.1
20260510132107 25 306 4.8 8.0 0.00 0.00 0.00 96 1015.1
20260510132004 25 306 4.8 8.0 0.00 0.00 0.00 96 1015.1
20260510131607 25 306 4.8 8.0 0.00 0.00 0.00 96 1015.1
20260510131504 25 306 4.8 8.0 0.00 0.00 0.00 96 1015.1
20260510131107 25 306 4.8 8.0 0.00 0.00 0.00 97 1015.0
20260510131004 25 306 4.8 8.0 0.00 0.00 0.00 97 1015.0
20260510130607 25 306 4.8 8.0 0.00 0.00 0.00 97 1015.0
20260510130504 25 306 4.8 8.0 0.00 0.00 0.00 97 1015.0
20260510130107 25 306 4.8 8.0 0.00 0.00 0.00 97 1015.0
20260510125607 25 306 4.8 8.0 0.00 0.00 0.00 98 1015.0
20260510125107 25 306 4.8 8.0 0.00 0.00 0.00 98 1015.0
20260510125004 25 306 4.8 8.0 0.00 0.00 0.00 98 1015.0
20260510124607 25 306 4.8 8.0 0.00 0.00 0.00 98 1015.0
20260510124504 25 306 4.8 8.0 0.00 0.00 0.00 98 1015.0
20260510124107 25 306 4.8 8.0 0.00 0.00 0.00 98 1014.9
20260510124004 25 306 4.8 8.0 0.00 0.00 0.00 98 1014.9
20260510123607 25 306 4.8 8.0 0.00 0.00 0.00 98 1014.8
20260510123504 25 306 4.8 8.0 0.00 0.00 0.00 98 1014.8
20260510123107 24 306 4.8 8.0 0.00 0.00 0.00 98 1014.6
20260510123004 24 306 4.8 8.0 0.00 0.00 0.00 98 1014.6
20260510122607 23 306 4.8 8.0 0.00 0.00 0.00 99 1014.6
20260510122504 23 306 4.8 8.0 0.00 0.00 0.00 99 1014.7
20260510122107 23 306 4.8 8.0 0.00 0.00 0.00 99 1014.7
20260510122004 23 306 4.8 8.0 0.00 0.00 0.00 99 1014.7
20260510121607 23 306 4.8 8.0 0.00 0.00 0.00 99 1014.7
20260510121107 23 306 4.8 8.0 0.00 0.00 0.00 99 1014.6
20260510121004 23 306 4.8 8.0 0.00 0.00 0.00 99 1014.6
20260510120607 23 306 4.8 8.0 0.00 0.00 0.00 99 1014.5
20260510120107 23 306 4.8 8.0 0.00 0.00 0.00 99 1014.4
20260510120004 23 306 4.8 8.0 0.00 0.00 0.00 99 1014.4
20260510115607 23 306 4.8 8.0 0.00 0.00 0.00 99 1014.3
20260510115505 23 306 4.8 8.0 0.00 0.00 0.00 99 1014.3
20260510115107 23 306 4.8 8.0 0.00 0.00 0.00 99 1014.3
20260510115004 23 306 4.8 8.0 0.00 0.00 0.00 99 1014.3
20260510114607 23 306 4.8 8.0 0.00 0.00 0.00 99 1014.3
20260510114504 23 306 4.8 8.0 0.00 0.00 0.00 99 1014.2
20260510114107 23 306 4.8 8.0 0.00 0.00 0.00 99 1014.2
20260510114003 23 306 4.8 8.0 0.00 0.00 0.00 99 1014.2
20260510113607 23 306 4.8 8.0 0.00 0.00 0.00 99 1014.2
20260510113504 23 306 4.8 8.0 0.00 0.00 0.00 99 1014.2
20260510113107 23 306 4.8 8.0 0.00 0.00 0.00 99 1014.1
20260510113005 23 306 4.8 8.0 0.00 0.00 0.00 99 1014.1
20260510112607 23 306 4.8 8.0 0.00 0.00 0.00 99 1014.0
20260510112503 23 306 4.8 8.0 0.00 0.00 0.00 99 1014.0
20260510112107 23 306 4.8 8.0 0.00 0.00 0.00 99 1014.0
20260510112004 23 306 4.8 8.0 0.00 0.00 0.00 99 1013.9
20260510111607 23 306 4.8 8.0 0.00 0.00 0.00 99 1013.9
20260510111107 23 306 4.8 8.0 0.00 0.00 0.00 98 1014.0
20260510111004 23 306 4.8 8.0 0.00 0.00 0.00 98 1014.0
20260510110607 23 306 4.8 8.0 0.00 0.00 0.00 98 1013.9
20260510110107 23 306 4.8 8.0 0.00 0.00 0.00 98 1013.9
20260510105607 23 306 4.8 8.0 0.00 0.00 0.00 98 1013.9
20260510105107 23 306 4.8 8.0 0.00 0.00 0.00 98 1013.8
20260510104607 23 306 4.8 8.0 0.00 0.00 0.00 98 1013.7
20260510104107 23 306 4.8 8.0 0.00 0.00 0.00 98 1013.6
20260510104004 23 306 4.8 8.0 0.00 0.00 0.00 98 1013.5
20260510103607 23 306 4.8 8.0 0.00 0.00 0.00 98 1013.5
20260510103503 23 306 4.8 8.0 0.00 0.00 0.00 98 1013.5
20260510103107 23 306 4.8 8.0 0.00 0.00 0.00 98 1013.4
20260510103004 23 306 4.8 8.0 0.00 0.00 0.00 98 1013.4
20260510102607 23 306 4.8 8.0 0.00 0.00 0.00 98 1013.3
20260510102504 23 306 4.8 8.0 0.00 0.00 0.00 98 1013.3
20260510102107 23 306 4.8 8.0 0.00 0.00 0.00 98 1013.3
20260510102003 23 306 4.8 8.0 0.00 0.00 0.00 98 1013.2
20260510101607 23 306 4.8 8.0 0.00 0.00 0.00 98 1013.2
20260510101504 23 306 4.8 8.0 0.00 0.00 0.00 98 1013.2
20260510101107 23 306 4.8 8.0 0.00 0.00 0.00 98 1013.1
20260510101004 23 306 4.8 8.0 0.00 0.00 0.00 98 1013.1
20260510100607 23 306 4.8 8.0 0.00 0.00 0.00 98 1013.1
20260510100107 23 306 4.8 8.0 0.00 0.00 0.00 98 1013.1
20260510100004 23 306 4.8 8.0 0.00 0.00 0.00 98 1013.0
20260510095607 23 306 4.8 8.0 0.00 0.00 0.00 98 1013.0
20260510095504 23 306 4.8 8.0 0.00 0.00 0.00 98 1013.0
20260510095107 23 306 4.8 8.0 0.00 0.00 0.00 98 1012.9
20260510095004 23 306 4.8 8.0 0.00 0.00 0.00 98 1012.9
20260510094607 23 306 4.8 8.0 0.00 0.00 0.00 98 1012.9
20260510094503 23 306 4.8 8.0 0.00 0.00 0.00 98 1012.9
20260510094107 23 306 4.8 8.0 0.00 0.00 0.00 98 1012.8
20260510094004 23 306 4.8 8.0 0.00 0.00 0.00 98 1012.9
20260510093607 23 306 4.8 8.0 0.00 0.00 0.00 98 1012.8
20260510093504 23 306 4.8 8.0 0.00 0.00 0.00 98 1012.8
20260510093107 23 306 4.8 8.0 0.00 0.00 0.00 98 1012.8
20260510093004 23 306 4.8 8.0 0.00 0.00 0.00 98 1012.8
20260510092607 23 306 4.8 8.0 0.00 0.00 0.00 97 1012.8
20260510092504 23 306 4.8 8.0 0.00 0.00 0.00 97 1012.8
20260510092107 23 306 4.8 8.0 0.00 0.00 0.00 97 1012.8
20260510092004 23 306 4.8 8.0 0.00 0.00 0.00 97 1012.8
20260510091607 23 306 4.8 8.0 0.00 0.00 0.00 97 1012.8
20260510091504 23 306 4.8 8.0 0.00 0.00 0.00 97 1012.8
20260510091107 23 306 4.8 8.0 0.00 0.00 0.00 97 1012.8
20260510091004 23 306 4.8 8.0 0.00 0.00 0.00 97 1012.7
20260510090607 23 306 4.8 8.0 0.00 0.00 0.00 97 1012.7
20260510090107 23 306 4.8 8.0 0.00 0.00 0.00 97 1012.6
20260510090004 23 306 4.8 8.0 0.00 0.00 0.00 97 1012.6
20260510085607 23 306 4.8 8.0 0.00 0.00 0.00 97 1012.7
20260510085504 23 306 4.8 8.0 0.00 0.00 0.00 97 1012.6
20260510085107 23 306 4.8 8.0 0.00 0.00 0.00 97 1012.6
20260510085004 23 306 4.8 8.0 0.00 0.00 0.00 97 1012.6
20260510084607 23 306 4.8 8.0 0.00 0.00 0.00 97 1012.6
20260510084504 23 306 4.8 8.0 0.00 0.00 0.00 97 1012.6
20260510084107 23 306 4.8 8.0 0.00 0.00 0.00 97 1012.5
20260510084003 23 306 4.8 8.0 0.00 0.00 0.00 97 1012.5
20260510083607 23 306 4.8 8.0 0.00 0.00 0.00 97 1012.4
20260510083504 23 306 4.8 8.0 0.00 0.00 0.00 97 1012.4
20260510083107 23 306 4.8 8.0 0.00 0.00 0.00 97 1012.4
20260510083004 23 306 4.8 8.0 0.00 0.00 0.00 97 1012.4
20260510082607 23 306 4.8 8.0 0.00 0.00 0.00 97 1012.4
20260510082504 23 306 4.8 8.0 0.00 0.00 0.00 97 1012.3
20260510082107 23 306 4.8 8.0 0.00 0.00 0.00 97 1012.3
20260510082004 23 306 4.8 8.0 0.00 0.00 0.00 97 1012.4
20260510081607 23 306 4.8 8.0 0.00 0.00 0.00 97 1012.4
20260510081504 23 306 4.8 8.0 0.00 0.00 0.00 97 1012.4
20260510081107 23 306 4.8 8.0 0.00 0.00 0.00 97 1012.5
20260510081005 23 306 4.8 8.0 0.00 0.00 0.00 97 1012.6
20260510080607 23 306 4.8 8.0 0.00 0.00 0.00 96 1012.6
20260510080504 23 306 4.8 8.0 0.00 0.00 0.00 97 1012.6
20260510080107 23 306 4.8 8.0 0.00 0.00 0.00 96 1012.6
20260510080004 23 306 4.8 8.0 0.00 0.00 0.00 97 1012.6
20260510075607 23 306 4.8 8.0 0.00 0.00 0.00 96 1012.6
20260510075107 23 306 4.8 8.0 0.00 0.00 0.00 96 1012.5
20260510075004 23 306 4.8 8.0 0.00 0.00 0.00 96 1012.6
20260510074607 23 306 4.8 8.0 0.00 0.00 0.00 96 1012.6
20260510074504 23 306 4.8 8.0 0.00 0.00 0.00 96 1012.6
20260510074107 23 306 4.8 8.0 0.00 0.00 0.00 96 1012.6
20260510074005 23 306 4.8 8.0 0.00 0.00 0.00 96 1012.6
20260510073607 23 306 4.8 8.0 0.00 0.00 0.00 96 1012.6
20260510073504 23 306 4.8 8.0 0.00 0.00 0.00 96 1012.5
20260510073107 23 306 4.8 8.0 0.00 0.00 0.00 96 1012.6
20260510073004 23 306 4.8 8.0 0.00 0.00 0.00 96 1012.6
20260510072607 23 306 4.8 8.0 0.00 0.00 0.00 96 1012.6
20260510072503 23 306 4.8 8.0 0.00 0.00 0.00 96 1012.6
20260510072107 23 306 4.8 8.0 0.00 0.00 0.00 96 1012.6
20260510072005 23 306 4.8 8.0 0.00 0.00 0.00 96 1012.6
20260510071607 23 306 4.8 8.0 0.00 0.00 0.00 96 1012.6
20260510071107 23 306 4.8 8.0 0.00 0.00 0.00 96 1012.7
20260510071004 23 306 4.8 8.0 0.00 0.00 0.00 96 1012.7
20260510070607 23 306 4.8 8.0 0.00 0.00 0.00 96 1012.8
20260510070505 23 306 4.8 8.0 0.00 0.00 0.00 96 1012.8
20260510070107 23 306 4.8 8.0 0.00 0.00 0.00 95 1012.8
20260510070004 23 306 4.8 8.0 0.00 0.00 0.00 95 1012.8
20260510065607 23 306 4.8 8.0 0.00 0.00 0.00 95 1012.9
20260510065507 23 306 4.8 8.0 0.00 0.00 0.00 95 1012.9
20260510065107 23 306 4.8 8.0 0.00 0.00 0.00 95 1013.0
20260510065004 23 306 4.8 8.0 0.00 0.00 0.00 95 1013.1
20260510064607 23 306 4.8 8.0 0.00 0.00 0.00 95 1013.2
20260510064505 24 306 4.8 8.0 0.00 0.00 0.00 95 1013.1
20260510064107 24 306 4.8 8.0 0.00 0.00 0.00 95 1013.1
20260510064003 24 306 4.8 8.0 0.00 0.00 0.00 95 1013.1
20260510063607 24 306 4.8 8.0 0.00 0.00 0.00 95 1013.1
20260510063107 24 306 4.8 8.0 0.00 0.00 0.00 95 1013.2
20260510063005 24 306 4.8 8.0 0.00 0.00 0.00 95 1013.2
20260510062607 24 306 4.8 8.0 0.00 0.00 0.00 95 1013.2
20260510062107 24 306 4.8 8.0 0.00 0.00 0.00 95 1013.4
20260510062004 24 306 4.8 8.0 0.00 0.00 0.00 95 1013.4
20260510061607 24 306 4.8 8.0 0.00 0.00 0.00 94 1013.4
20260510061504 24 306 4.8 8.0 0.00 0.00 0.00 94 1013.4
20260510061107 24 306 4.8 8.0 0.00 0.00 0.00 94 1013.4
20260510061004 24 306 4.8 8.0 0.00 0.00 0.00 94 1013.4
20260510060607 24 306 4.8 8.0 0.00 0.00 0.00 94 1013.5
20260510060503 24 306 4.8 8.0 0.00 0.00 0.00 94 1013.5
20260510060107 24 306 4.8 8.0 0.00 0.00 0.00 94 1013.5
20260510055607 24 306 4.8 8.0 0.00 0.00 0.00 94 1013.6
20260510055504 24 306 4.8 8.0 0.00 0.00 0.00 94 1013.6
20260510055107 24 306 4.8 8.0 0.00 0.00 0.00 94 1013.6
20260510055005 24 306 4.8 8.0 0.00 0.00 0.00 94 1013.6
20260510054607 24 306 4.8 8.0 0.00 0.00 0.00 94 1013.6
20260510054504 24 306 4.8 8.0 0.00 0.00 0.00 94 1013.7
20260510054107 24 306 4.8 8.0 0.00 0.00 0.00 94 1013.7
20260510054003 24 306 4.8 8.0 0.00 0.00 0.00 94 1013.8
20260510053607 24 306 4.8 8.0 0.00 0.00 0.00 94 1013.8
20260510053504 24 306 4.8 8.0 0.00 0.00 0.00 94 1013.8
20260510053107 24 306 4.8 8.0 0.00 0.00 0.00 94 1013.8
20260510053004 24 306 4.8 8.0 0.00 0.00 0.00 94 1013.8
20260510052607 23 306 4.8 8.0 0.00 0.00 0.00 93 1013.9
20260510052504 23 306 4.8 8.0 0.00 0.00 0.00 93 1013.9
20260510052107 23 306 4.8 8.0 0.00 0.00 0.00 93 1014.0
20260510051607 23 306 4.8 8.0 0.00 0.00 0.00 93 1014.0
20260510051504 23 306 4.8 8.0 0.00 0.00 0.00 93 1014.1
20260510051107 24 306 4.8 8.0 0.00 0.00 0.00 93 1014.1
20260510051004 24 306 4.8 8.0 0.00 0.00 0.00 93 1014.1
20260510050607 24 306 4.8 8.0 0.00 0.00 0.00 93 1014.2
20260510050503 24 306 4.8 8.0 0.00 0.00 0.00 93 1014.2
20260510050107 24 306 4.8 8.0 0.00 0.00 0.00 93 1014.2
20260510050005 24 306 4.8 8.0 0.00 0.00 0.00 93 1014.2
20260510045607 24 306 4.8 8.0 0.00 0.00 0.00 93 1014.2
20260510045504 24 306 4.8 8.0 0.00 0.00 0.00 93 1014.2
20260510045107 24 306 4.8 8.0 0.00 0.00 0.00 93 1014.2
20260510044607 24 306 4.8 8.0 0.00 0.00 0.00 93 1014.1
20260510044503 24 306 4.8 8.0 0.00 0.00 0.00 93 1014.1
20260510044107 24 306 4.8 8.0 0.00 0.00 0.00 93 1014.0
20260510044004 24 306 4.8 8.0 0.00 0.00 0.00 93 1014.0
20260510043607 24 306 4.8 8.0 0.00 0.00 0.00 92 1014.1
20260510043504 24 306 4.8 8.0 0.00 0.00 0.00 92 1014.1
20260510043107 24 306 4.8 8.0 0.00 0.00 0.00 92 1014.2
20260510043005 24 306 4.8 8.0 0.00 0.00 0.00 92 1014.2
20260510042607 24 306 4.8 8.0 0.00 0.00 0.00 92 1014.2
20260510042504 24 306 4.8 8.0 0.00 0.00 0.00 92 1014.2
20260510042107 24 306 4.8 8.0 0.00 0.00 0.00 92 1014.2
20260510042005 24 306 4.8 8.0 0.00 0.00 0.00 92 1014.2
20260510041607 24 306 4.8 8.0 0.00 0.00 0.00 92 1014.3
20260510041504 24 306 4.8 8.0 0.00 0.00 0.00 92 1014.3
20260510041107 25 306 4.8 8.0 0.00 0.00 0.00 92 1014.2
20260510040607 24 306 4.8 8.0 0.00 0.00 0.00 92 1014.2
20260510040504 24 306 4.8 8.0 0.00 0.00 0.00 92 1014.3
20260510040107 24 306 4.8 8.0 0.00 0.00 0.00 91 1014.3
20260510040004 24 306 4.8 8.0 0.00 0.00 0.00 91 1014.3
20260510035607 24 306 4.8 8.0 0.00 0.00 0.00 91 1014.3
20260510035504 24 306 4.8 8.0 0.00 0.00 0.00 91 1014.3
20260510035107 24 306 4.8 8.0 0.00 0.00 0.00 91 1014.2
20260510035004 24 306 4.8 8.0 0.00 0.00 0.00 91 1014.2
20260510034607 24 306 4.8 8.0 0.00 0.00 0.00 91 1014.3
20260510034504 24 306 4.8 8.0 0.00 0.00 0.00 91 1014.3
20260510034107 24 306 4.8 8.0 0.00 0.00 0.00 91 1014.3
20260510033607 24 306 4.8 8.0 0.00 0.00 0.00 92 1014.2
20260510033107 24 306 4.8 8.0 0.00 0.00 0.00 91 1014.2
20260510033004 24 306 4.8 8.0 0.00 0.00 0.00 91 1014.2
20260510032607 24 306 4.8 8.0 0.00 0.00 0.00 91 1014.2
20260510032504 24 306 4.8 8.0 0.00 0.00 0.00 91 1014.2
20260510032107 24 306 4.8 8.0 0.00 0.00 0.00 91 1014.3
20260510032004 24 306 4.8 8.0 0.00 0.00 0.00 91 1014.3
20260510031607 24 306 4.8 8.0 0.00 0.00 0.00 91 1014.2
20260510031504 24 306 4.8 8.0 0.00 0.00 0.00 91 1014.3
20260510031107 24 306 4.8 8.0 0.00 0.00 0.00 91 1014.3
20260510031004 24 306 4.8 8.0 0.00 0.00 0.00 91 1014.3
20260510030607 24 306 4.8 8.0 0.00 0.00 0.00 91 1014.3
20260510030504 24 306 4.8 8.0 0.00 0.00 0.00 91 1014.3
20260510030107 24 306 4.8 8.0 0.00 0.00 0.00 91 1014.2
20260510030004 24 306 4.8 8.0 0.00 0.00 0.00 91 1014.2
20260510025607 25 306 4.8 8.0 0.00 0.00 0.00 91 1014.1
20260510025504 25 306 4.8 8.0 0.00 0.00 0.00 91 1014.1
20260510025107 25 306 4.8 8.0 0.00 0.00 0.00 91 1014.1
20260510025003 25 306 4.8 8.0 0.00 0.00 0.00 91 1014.0
20260510024607 25 306 4.8 8.0 0.00 0.00 0.00 91 1014.0
20260510024504 25 306 4.8 8.0 0.00 0.00 0.00 91 1014.0
20260510024107 24 306 4.8 8.0 0.00 0.00 0.00 91 1013.9
20260510024004 24 306 4.8 8.0 0.00 0.00 0.00 90 1013.9
20260510023607 24 306 4.8 8.0 0.00 0.00 0.00 90 1013.9
20260510023504 24 306 4.8 8.0 0.00 0.00 0.00 90 1013.9
20260510023107 24 306 4.8 8.0 0.00 0.00 0.00 90 1014.1
20260510023004 24 306 4.8 8.0 0.00 0.00 0.00 90 1014.0
20260510022607 24 306 4.8 8.0 0.00 0.00 0.00 90 1014.1
20260510022504 24 306 4.8 8.0 0.00 0.00 0.00 90 1014.1
20260510022107 24 306 4.8 8.0 0.00 0.00 0.00 89 1013.9
20260510022005 24 306 4.8 8.0 0.00 0.00 0.00 89 1014.0
20260510021607 24 306 4.8 8.0 0.00 0.00 0.00 89 1014.1
20260510021504 24 306 4.8 8.0 0.00 0.00 0.00 89 1014.1
20260510021107 24 306 4.8 8.0 0.00 0.00 0.00 89 1014.1
20260510021005 24 306 4.8 8.0 0.00 0.00 0.00 89 1014.1
20260510020607 24 306 4.8 8.0 0.00 0.00 0.00 89 1014.1
20260510020504 24 306 4.8 8.0 0.00 0.00 0.00 89 1014.0
20260510020107 24 306 4.8 8.0 0.00 0.00 0.00 89 1013.9
20260510020005 24 306 4.8 8.0 0.00 0.00 0.00 89 1013.9
20260510015607 24 306 4.8 8.0 0.00 0.00 0.00 89 1013.8
20260510015504 24 306 4.8 8.0 0.00 0.00 0.00 89 1013.8
20260510015107 23 306 4.8 8.0 0.00 0.00 0.00 89 1013.7
20260510014607 23 306 4.8 8.0 0.00 0.00 0.00 89 1013.7
20260510014504 23 306 4.8 8.0 0.00 0.00 0.00 89 1013.7
20260510014107 23 306 4.8 8.0 0.00 0.00 0.00 90 1013.7
20260510014004 23 306 4.8 8.0 0.00 0.00 0.00 90 1013.7
20260510013607 23 306 4.8 8.0 0.00 0.00 0.00 90 1013.8
20260510013504 23 306 4.8 8.0 0.00 0.00 0.00 90 1013.8
20260510013106 23 306 4.8 8.0 0.00 0.00 0.00 90 1013.7
20260510012607 23 306 4.8 8.0 0.00 0.00 0.00 90 1013.6
20260510012504 23 306 4.8 8.0 0.00 0.00 0.00 90 1013.6
20260510012107 23 306 4.8 8.0 0.00 0.00 0.00 91 1013.6
20260510011606 23 306 4.8 8.0 0.00 0.00 0.00 91 1013.4
20260510011504 23 306 4.8 8.0 0.00 0.00 0.00 91 1013.5
20260510011106 23 306 4.8 8.0 0.00 0.00 0.00 91 1013.6
20260510011004 23 306 4.8 8.0 0.00 0.00 0.00 91 1013.6
20260510010607 23 306 4.8 8.0 0.00 0.00 0.00 91 1013.6
20260510010504 23 306 4.8 8.0 0.00 0.00 0.00 91 1013.6
20260510010106 23 306 4.8 8.0 0.00 0.00 0.00 91 1013.6
20260510010004 23 306 4.8 8.0 0.00 0.00 0.00 91 1013.6
20260510005606 23 306 4.8 8.0 0.00 0.00 0.00 91 1013.5
20260510005504 23 306 4.8 8.0 0.00 0.00 0.00 91 1013.5
20260510005106 23 306 4.8 8.0 0.00 0.00 0.00 91 1013.4
20260510005004 23 306 4.8 8.0 0.00 0.00 0.00 91 1013.4
20260510004606 23 306 4.8 8.0 0.00 0.00 0.00 92 1013.4
20260510004504 23 306 4.8 8.0 0.00 0.00 0.00 92 1013.4
20260510004106 23 306 4.8 8.0 0.00 0.00 0.00 92 1013.4
20260510004004 24 306 4.8 8.0 0.00 0.00 0.00 92 1013.4
20260510003606 24 306 4.8 8.0 0.00 0.00 0.00 92 1013.3
20260510003504 24 306 4.8 8.0 0.00 0.00 0.00 92 1013.2
20260510003106 24 306 4.8 8.0 0.00 0.00 0.00 92 1013.1
20260510003004 24 306 4.8 8.0 0.00 0.00 0.00 92 1013.1
20260510002606 24 306 4.8 8.0 0.00 0.00 0.00 92 1013.0
20260510002504 24 306 4.8 8.0 0.00 0.00 0.00 92 1013.1
20260510002106 24 306 4.8 8.0 0.00 0.00 0.00 92 1013.1
20260510002004 24 306 4.8 8.0 0.00 0.00 0.00 92 1013.1
20260510001606 24 306 4.8 8.0 0.00 0.00 0.00 92 1013.1
20260510001504 24 306 4.8 8.0 0.00 0.00 0.00 92 1013.1
20260510001106 24 306 4.8 8.0 0.00 0.00 0.00 92 1013.1
20260510001004 24 306 4.8 8.0 0.00 0.00 0.00 92 1013.1
20260510000606 24 306 4.8 8.0 0.00 0.00 0.00 92 1012.9
20260510000504 24 306 4.8 8.0 0.00 0.00 0.00 92 1012.9
20260510000106 24 306 4.8 8.0 0.00 0.00 0.00 91 1012.9
20260510000004 24 306 4.8 8.0 0.00 0.00 0.00 92 1012.8
20260509235606 24 306 4.8 8.0 0.00 0.00 0.00 92 1012.8
20260509235504 23 306 4.8 8.0 0.00 0.00 0.00 92 1012.8
20260509235106 23 306 4.8 8.0 0.00 0.00 0.00 92 1012.7
20260509235004 23 306 4.8 8.0 0.00 0.00 0.00 92 1012.7
20260509234606 24 306 4.8 8.0 0.00 0.00 0.00 92 1012.7
20260509234504 24 306 4.8 8.0 0.00 0.00 0.00 92 1012.6
20260509234106 24 306 4.8 8.0 0.00 0.00 0.00 92 1012.6
20260509234005 24 306 4.8 8.0 0.00 0.00 0.00 92 1012.6
20260509233536 24 306 4.8 8.0 0.00 0.00 0.00 92 1012.6
20260509233504 24 306 4.8 8.0 0.00 0.00 0.00 92 1012.6
20260509233036 24 306 4.8 8.0 0.00 0.00 0.00 92 1012.5
20260509233004 24 306 4.8 8.0 0.00 0.00 0.00 92 1012.5
20260509232536 24 306 4.8 8.0 0.00 0.00 0.00 92 1012.4
20260509232504 24 306 4.8 8.0 0.00 0.00 0.00 92 1012.4
20260509232036 24 306 4.8 8.0 0.00 0.00 0.00 92 1012.4
20260509232004 24 306 4.8 8.0 0.00 0.00 0.00 92 1012.4
20260509231536 24 306 4.8 8.0 0.00 0.00 0.00 92 1012.4
20260509231504 24 306 4.8 8.0 0.00 0.00 0.00 92 1012.4
20260509231036 24 306 4.8 8.0 0.00 0.00 0.00 92 1012.4
20260509230536 24 306 4.8 8.0 0.00 0.00 0.00 92 1012.4
20260509230504 24 306 4.8 8.0 0.00 0.00 0.00 92 1012.4
20260509230036 24 306 4.8 8.0 0.00 0.00 0.00 93 1012.3
20260509230004 24 306 4.8 8.0 0.00 0.00 0.00 93 1012.3
20260509225536 24 306 4.8 8.0 0.00 0.00 0.00 92 1012.2
20260509225036 24 306 4.8 8.0 0.00 0.00 0.00 92 1012.3
20260509225004 24 306 4.8 8.0 0.00 0.00 0.00 92 1012.3
20260509224536 24 306 4.8 8.0 0.00 0.00 0.00 92 1012.5
20260509224504 24 306 4.8 8.0 0.00 0.00 0.00 92 1012.5
20260509224036 24 306 4.8 8.0 0.00 0.00 0.00 92 1012.6
20260509224004 24 306 4.8 8.0 0.00 0.00 0.00 92 1012.6
20260509223536 24 306 4.8 8.0 0.00 0.00 0.00 92 1012.7
20260509223504 24 306 4.8 8.0 0.00 0.00 0.00 92 1012.7
20260509223036 25 306 4.8 8.0 0.00 0.00 0.00 92 1012.5
20260509223004 25 306 4.8 8.0 0.00 0.00 0.00 92 1012.5
20260509222536 25 306 4.8 8.0 0.00 0.00 0.00 92 1012.5
20260509222504 25 306 4.8 8.0 0.00 0.00 0.00 92 1012.5
20260509222036 25 306 4.8 8.0 0.00 0.00 0.00 92 1012.2
20260509222004 25 306 4.8 8.0 0.00 0.00 0.00 92 1012.2
20260509221536 25 306 4.8 8.0 0.00 0.00 0.00 92 1012.1
20260509221504 25 306 4.8 8.0 0.00 0.00 0.00 92 1012.1
20260509221036 25 306 4.8 8.0 0.00 0.00 0.00 92 1012.1
20260509220536 24 306 4.8 8.0 0.00 0.00 0.00 92 1012.0
20260509220504 24 306 4.8 8.0 0.00 0.00 0.00 92 1012.0
20260509220036 24 306 4.8 8.0 0.00 0.00 0.00 92 1012.1
20260509220004 24 306 4.8 8.0 0.00 0.00 0.00 92 1012.1
20260509215536 24 306 4.8 8.0 0.00 0.00 0.00 92 1012.0
20260509215504 24 306 4.8 8.0 0.00 0.00 0.00 92 1012.0
20260509215036 24 306 4.8 8.0 0.00 0.00 0.00 91 1012.1
20260509215004 24 306 4.8 8.0 0.00 0.00 0.00 91 1012.1
20260509214536 24 306 4.8 8.0 0.00 0.00 0.00 91 1012.1
20260509214504 24 306 4.8 8.0 0.00 0.00 0.00 91 1012.1
20260509214036 24 306 4.8 8.0 0.00 0.00 0.00 91 1012.1
20260509213536 24 306 4.8 8.0 0.00 0.00 0.00 91 1012.0
20260509213504 24 306 4.8 8.0 0.00 0.00 0.00 91 1012.0
20260509213036 24 306 4.8 8.0 0.00 0.00 0.00 91 1012.2
20260509213004 24 306 4.8 8.0 0.00 0.00 0.00 91 1012.2
20260509212536 24 306 4.8 8.0 0.00 0.00 0.00 90 1012.3
20260509212503 24 306 4.8 8.0 0.00 0.00 0.00 90 1012.3
20260509212036 24 306 4.8 8.0 0.00 0.00 0.00 90 1012.3
20260509212004 24 306 4.8 8.0 0.00 0.00 0.00 90 1012.3
20260509211536 25 306 4.8 8.0 0.00 0.00 0.00 89 1012.3
20260509211006 25 306 4.8 8.0 0.00 0.00 0.00 88 1012.1
20260509211004 25 306 4.8 8.0 0.00 0.00 0.00 88 1012.1
20260509210506 25 306 4.8 8.0 0.00 0.00 0.00 86 1012.1
20260509210504 25 306 4.8 8.0 0.00 0.00 0.00 86 1012.1
20260509210006 24 306 4.8 8.0 0.00 0.00 0.00 85 1011.9
20260509205506 24 306 4.8 8.0 0.00 0.00 0.00 85 1011.8
20260509205504 24 306 4.8 8.0 0.00 0.00 0.00 85 1011.8
20260509205006 24 306 4.8 8.0 0.00 0.00 0.00 86 1011.8
20260509205004 24 306 4.8 8.0 0.00 0.00 0.00 86 1011.8
20260509204506 24 306 4.8 8.0 0.00 0.00 0.00 85 1011.7
20260509204504 24 306 4.8 8.0 0.00 0.00 0.00 85 1011.7
20260509204006 24 306 4.8 8.0 0.00 0.00 0.00 86 1011.9
20260509204003 24 306 4.8 8.0 0.00 0.00 0.00 86 1011.9
20260509203506 23 306 4.8 8.0 0.00 0.00 0.00 86 1011.9
20260509203504 23 306 4.8 8.0 0.00 0.00 0.00 86 1011.9
20260509203007 23 306 4.8 8.0 0.00 0.00 0.00 88 1011.9
20260509203004 23 306 4.8 8.0 0.00 0.00 0.00 88 1011.9
20260509202506 23 306 4.8 8.0 0.00 0.00 0.00 88 1012.0
20260509202504 23 306 4.8 8.0 0.00 0.00 0.00 88 1012.0
20260509202006 23 306 4.8 8.0 0.00 0.00 0.00 89 1012.4
20260509202003 23 306 4.8 8.0 0.00 0.00 0.00 89 1012.4
20260509201506 24 306 4.8 8.0 0.00 0.00 0.00 89 1012.5
20260509201504 24 306 4.8 8.0 0.00 0.00 0.00 89 1012.5
20260509201006 26 306 4.8 8.0 0.00 0.00 0.00 88 1012.5
20260509201004 26 306 4.8 8.0 0.00 0.00 0.00 88 1012.5
20260509200506 26 306 4.8 8.0 0.00 0.00 0.00 90 1012.0
20260509200504 26 306 4.8 8.0 0.00 0.00 0.00 90 1012.0
20260509200006 26 306 4.8 8.0 0.00 0.00 0.00 90 1011.6
20260509200004 26 306 4.8 8.0 0.00 0.00 0.00 90 1011.6
20260509195506 26 306 4.8 8.0 0.00 0.00 0.00 89 1011.4
20260509195504 26 306 4.8 8.0 0.00 0.00 0.00 89 1011.4
20260509195006 26 306 4.8 8.0 0.00 0.00 0.00 89 1011.3
20260509195004 26 306 4.8 8.0 0.00 0.00 0.00 89 1011.3
20260509194506 26 306 4.8 8.0 0.00 0.00 0.00 90 1011.4